This is the latest recevied weather packets stored in our database for station/object W8KVG. If no packets are shown the sender has not sent any weather packets the latest 10 day(s).
| Time | Temp. | Humidity | Pressure | Rain* | Wind** | Luminosity | Snow |
|---|---|---|---|---|---|---|---|
| 1777646842 | 8.89° C | 82% | 1011.7 hPa | 0 mm | - | 80 W/m² | - |
| 1777646538 | 8.89° C | 83% | 1011.8 hPa | 0 mm | - | 103 W/m² | - |
| 1777646234 | 8.89° C | 84% | 1011.8 hPa | 0 mm | - | 74 W/m² | - |
| 1777645932 | 8.89° C | 84% | 1011.7 hPa | 0 mm | - | 63 W/m² | - |
| 1777645629 | 8.33° C | 83% | 1011.8 hPa | 0 mm | - | 70 W/m² | - |
| 1777645324 | 8.89° C | 84% | 1011.7 hPa | 0 mm | - | 63 W/m² | - |
| 1777645020 | 8.89° C | 85% | 1011.6 hPa | 0 mm | - | 109 W/m² | - |
| 1777644718 | 8.33° C | 84% | 1011.9 hPa | 0 mm | - | 108 W/m² | - |
| 1777644414 | 8.33° C | 84% | 1011.7 hPa | 0 mm | - | 116 W/m² | - |
| 1777644111 | 7.78° C | 84% | 1011.8 hPa | 0 mm | - | 119 W/m² | - |
| 1777643807 | 7.78° C | 84% | 1011.7 hPa | 0 mm | - | 114 W/m² | - |
| 1777643505 | 7.78° C | 86% | 1011.7 hPa | 0 mm | - | 130 W/m² | - |
| 1777643201 | 7.78° C | 88% | 1011.9 hPa | 0 mm | - | 125 W/m² | - |
| 1777642898 | 7.22° C | 88% | 1011.9 hPa | 0 mm | - | 145 W/m² | - |
| 1777642595 | 6.67° C | 89% | 1011.9 hPa | 0 mm | - | 104 W/m² | - |
| 1777642292 | 6.67° C | 89% | 1011.9 hPa | 0 mm | - | 55 W/m² | - |
| 1777641989 | 6.67° C | 89% | 1012 hPa | 0 mm | - | 60 W/m² | - |
| 1777641684 | 6.67° C | 90% | 1011.9 hPa | 0 mm | - | 73 W/m² | - |
| 1777641379 | 6.67° C | 90% | 1011.9 hPa | 0 mm | - | 67 W/m² | - |
| 1777641075 | 6.11° C | 91% | 1012.1 hPa | 0 mm | - | 93 W/m² | - |
| 1777640771 | 6.11° C | 92% | 1012.1 hPa | 0 mm | - | 67 W/m² | - |
| 1777640469 | 6.11° C | 92% | 1012.3 hPa | 0 mm | - | 74 W/m² | - |
| 1777640165 | 5.56° C | 92% | 1012.2 hPa | 0 mm | - | 49 W/m² | - |
| 1777639861 | 5.56° C | 93% | 1012.2 hPa | 0 mm | - | 36 W/m² | - |
| 1777639554 | 5.56° C | 94% | 1012.1 hPa | 0 mm | - | 55 W/m² | - |
* Rain latest hour (hover to see other rain measurements)
** Current wind speed in m/s (hover to see current wind gust speed)